User: anonymous   Login
Location: Valdosta
(30.8330°N, 83.2790°W)
Time: 05:27:49
(UTC-04:00)
Language:

Oscar 19 - Orbit

View from above orbital plane
View from above orbital plane
View from above satellite
View from above satellite

Ground track
Ground track

The orbit data is extracted from the following two-line orbital elements,

1 20442U 90005G   15185.38331929  .00000043  00000-0  31758-4 0  9999
2 20442 098.5117 120.8315 0013005 096.7410 263.5255 14.32745024329409
Epoch (UTC): 04 July 2015 09:11:58
Eccentricity: 0.0013005
inclination: 98.5117°
perigee height: 773 km
apogee height: 792 km
right ascension of ascending node: 120.8315°
argument of perigee: 96.7410°
revolutions per day: 14.32745024
mean anomaly at epoch: 263.5255°
orbit number at epoch: 32940

The dashed part of the orbit path shows where the satellite is in the earth's shadow,  

DLR